Wind_Speed
4 4 4 4 4 5 5 5 5 5 6 6 6 7 7 7 7 7 8 9 9 9 9 9 9 9 10 11 11 10 10 10 9 9 9 8 8 9 8 8 8 8 7
5 5 5 5 5 5 6 7 6 6 7 7 7 7 8 8 8 8 9 9 9 10 10 10 10 10 11 11 11 11 11 10 10 10 10 10 9 9 10 9 9 9 10
6 5 5 6 6 7 7 7 7 7 8 8 8 8 9 9 9 9 9 9 9 10 11 11 12 12 12 12 12 11 11 11 11 11 11 11 11 10 10 10 10 10 11
7 6 7 7 7 8 8 8 8 8 9 9 9 9 10 10 11 10 10 10 11 11 12 12 12 12 12 13 13 13 12 12 12 12 12 12 12 12 12 11 11 11 12
8 8 8 8 8 8 8 9 9 9 9 10 10 10 11 11 11 12 11 11 11 12 12 13 13 13 13 14 14 14 14 13 13 13 13 12 13 13 13 12 12 13 13
9 9 9 8 8 8 9 9 9 9 9 10 11 11 11 11 12 12 12 12 12 12 12 13 14 14 14 14 15 15 15 14 14 15 15 14 14 14 14 13 13 14 13
10 10 9 9 9 9 9 9 10 10 10 11 11 11 11 11 11 12 12 12 13 13 13 13 14 15 15 15 16 16 16 15 15 15 15 15 16 16 15 15 15 15 14
11 10 10 9 9 10 10 11 12 11 12 12 12 13 12 12 12 12 12 13 13 13 14 15 15 16 16 16 16 17 17 17 17 17 16 17 17 17 17 17 16 15 15
11 11 11 10 10 10 11 11 12 13 13 13 14 14 13 13 13 12 13 14 14 14 14 15 16 16 16 17 18 18 18 19 19 18 18 18 18 18 18 17 17 17 17
12 12 12 11 10 11 11 11 12 13 13 14 14 14 14 14 14 14 14 15 15 15 15 15 16 18 18 18 18 19 19 19 20 20 20 20 20 20 20 20 19 19 18
12 12 12 12 11 12 11 11 12 13 14 15 15 15 15 15 16 16 16 17 17 17 17 17 17 18 18 19 19 20 21 21 21 21 21 21 21 20 20 20 20 19 19
13 13 13 13 12 12 11 12 12 13 14 14 15 15 15 16 17 17 18 18 18 19 19 20 20 20 20 20 20 21 21 21 22 22 22 22 22 21 21 22 22 21 20
14 14 13 13 13 13 13 13 13 14 14 14 15 15 15 16 17 17 18 19 19 20 21 21 22 22 23 22 22 22 22 23 23 23 23 23 24 23 23 23 23 23 22
15 15 14 13 13 12 13 13 14 14 14 15 15 16 17 17 18 18 18 19 19 20 21 21 21 22 23 23 23 23 23 23 24 24 24 24 25 25 25 25 25 24 24
16 16 14 14 14 13 13 14 14 14 14 15 15 16 17 17 18 19 19 19 19 20 20 21 22 22 23 23 24 24 24 24 24 24 24 24 25 25 25 26 26 25 24
16 16 15 15 15 15 15 15 16 16 15 15 16 17 18 19 19 19 19 20 20 21 21 21 21 22 23 23 24 25 24 24 24 24 25 25 25 26 26 27 27 27 26
17 17 16 16 16 16 16 16 16 16 16 17 17 18 19 20 20 20 21 21 22 22 22 22 23 24 24 24 23 23 23 24 25 25 24 25 26 26 27 27 27 27 27
18 18 18 17 17 17 18 18 18 18 18 18 19 20 20 20 21 22 22 23 23 24 24 23 24 26 25 25 25 24 25 25 26 26 25 25 26 26 27 27 27 27 28
18 19 19 19 19 19 19 19 19 19 20 20 20 21 21 21 22 23 24 24 25 25 25 25 26 26 26 26 25 26 27 26 26 27 27 27 26 26 27 28 27 28 29
20 20 20 21 21 21 21 21 21 21 21 21 21 22 22 22 23 24 25 25 26 26 26 26 27 27 27 27 28 27 27 27 27 27 27 27 27 26 27 28 28 28 29
21 21 21 22 22 22 22 21 21 22 22 22 22 23 24 24 24 25 26 26 26 26 26 26 26 27 28 27 27 27 27 27 27 28 28 28 28 28 27 27 28 29 29
22 22 22 22 23 23 22 22 22 22 22 22 23 23 24 25 25 26 27 27 27 27 27 27 27 27 27 27 27 27 27 27 28 28 28 27 28 28 28 28 29 29 29
23 23 23 23 23 23 23 23 23 23 23 23 23 23 24 25 26 26 27 28 27 27 27 27 27 27 28 27 27 27 26 26 25 25 26 27 26 27 27 28 28 29 30
24 24 23 24 24 24 24 24 24 24 23 23 24 24 25 25 26 26 26 26 26 26 26 26 26 27 27 26 26 26 26 26 25 25 25 25 27 27 28 28 28 29 29
24 24 24 25 25 26 26 25 25 23 24 24 25 25 26 26 26 26 26 26 26 26 26 26 26 26 26 25 25 25 26 26 25 25 26 26 27 27 28 28 28 29 29
24 25 25 25 26 26 25 25 25 24 24 25 26 26 27 27 27 27 27 27 27 27 26 26 25 25 25 25 25 25 25 25 26 25 26 27 27 28 28 29 29 29 29
Wind_Direction
321 302 285 279 275 271 267 261 259 258 247 247 245 245 240 237 233 236 240 245 245 246 247 247 245 243 243 243 245 250 255 257 259 255 255 262 263 258 257 261 260 259 260
318 306 296 290 285 276 266 262 264 262 249 251 249 247 242 239 242 245 247 248 249 248 251 247 247 248 246 250 253 254 256 256 261 263 262 261 263 260 260 260 258 261 260
316 304 295 291 287 277 268 263 259 255 254 252 251 252 246 243 248 252 252 253 253 253 253 252 248 247 246 252 258 259 258 259 261 262 261 261 263 264 262 264 262 263 260
320 309 294 287 283 279 274 266 262 255 253 254 253 253 251 250 252 251 254 257 258 258 256 255 255 254 253 254 257 257 258 260 261 261 262 262 262 264 267 267 264 261 259
328 318 306 290 279 274 273 271 266 261 259 257 256 257 255 256 255 255 255 258 260 260 257 255 255 257 257 256 257 257 256 258 260 260 260 262 263 264 265 266 265 262 258
327 323 316 303 289 277 273 270 268 270 267 261 259 261 261 263 261 257 258 259 262 263 260 256 256 257 258 259 258 260 260 260 261 259 259 261 262 261 263 265 266 264 261
324 322 315 306 295 287 280 275 275 275 273 267 265 264 265 266 263 263 261 262 263 263 263 263 262 259 258 259 261 261 260 259 262 263 263 262 261 261 262 264 264 264 259
326 323 316 307 298 291 285 278 276 274 272 270 268 266 265 267 268 271 268 267 267 266 264 265 265 261 259 259 260 261 260 259 260 261 264 263 262 260 260 263 264 263 259
331 328 322 311 302 295 288 281 278 275 274 273 269 266 265 266 269 270 270 270 270 269 265 264 267 266 263 263 263 264 262 261 260 262 263 264 262 258 258 259 260 262 260
332 329 323 315 308 304 295 285 281 279 276 275 271 268 265 265 267 267 269 270 271 270 269 269 268 269 269 267 267 267 264 262 263 263 263 263 260 259 257 257 258 260 259
332 328 323 319 314 308 301 290 285 282 279 277 274 270 269 267 268 268 270 271 271 271 271 272 272 270 269 269 268 267 265 266 266 265 264 263 262 260 257 256 258 258 256
334 330 324 316 314 310 305 298 290 288 281 277 275 272 271 270 270 269 270 269 269 270 272 273 272 271 270 268 268 267 266 266 265 265 263 262 261 260 257 256 256 257 256
332 330 326 320 313 306 302 299 292 294 289 280 275 274 275 276 274 272 271 270 268 268 270 273 272 271 269 268 269 267 265 264 263 262 261 262 261 260 258 255 255 255 254
325 324 322 319 316 311 304 299 296 294 290 286 281 278 277 278 278 277 274 272 271 271 271 272 271 271 270 269 268 266 266 265 263 262 261 261 260 259 257 255 254 253 254
324 323 319 315 314 312 307 303 300 295 292 289 288 283 281 280 281 280 278 276 275 275 274 274 273 271 269 269 268 267 268 266 265 264 262 262 260 257 255 255 253 250 251
324 321 317 316 316 314 311 307 303 297 292 290 289 288 286 281 281 279 279 277 276 276 275 274 274 273 273 273 272 268 269 266 265 264 264 263 261 256 254 254 253 249 249
318 316 313 312 312 312 309 306 306 302 299 294 291 290 289 286 282 280 280 280 279 278 276 276 274 273 273 271 269 267 267 266 263 264 263 263 261 258 257 257 253 249 248
315 315 312 310 310 309 306 305 304 302 299 296 294 292 289 289 286 283 282 282 281 280 278 277 277 275 273 271 269 267 267 266 264 262 263 263 261 258 256 255 253 249 247
311 311 310 308 308 308 306 305 302 303 302 297 295 294 291 288 288 286 284 283 282 281 280 279 278 277 274 271 269 268 266 264 264 263 263 263 262 259 256 254 252 250 249
308 307 308 307 306 307 306 305 302 303 301 298 295 293 292 291 289 288 287 285 284 283 281 281 279 278 277 273 270 268 265 263 263 263 261 259 259 259 256 254 252 250 248
308 308 308 307 307 306 306 306 304 301 300 297 296 294 292 291 290 288 287 286 285 283 282 281 280 279 278 276 271 270 266 264 263 262 259 255 255 257 257 254 252 250 249
306 307 307 308 307 308 308 306 304 302 300 298 296 295 294 292 291 290 288 286 284 282 281 281 281 280 279 277 273 271 268 266 264 261 259 257 255 254 253 252 250 249 249
306 305 306 306 307 308 307 306 303 301 300 298 297 297 296 295 293 291 290 287 284 283 282 282 282 281 280 277 273 270 269 267 266 264 261 259 256 253 251 249 250 250 249
306 305 304 304 305 306 305 303 303 301 300 300 300 299 298 296 295 293 292 289 287 285 283 282 281 280 278 276 274 272 269 268 267 265 264 261 258 255 254 252 252 251 251
306 304 304 304 304 305 305 305 303 301 300 300 301 300 299 297 296 295 293 291 289 287 284 283 283 281 279 277 276 273 270 267 265 264 263 263 260 257 255 255 254 252 251
305 304 304 304 304 304 304 304 303 301 301 301 301 301 299 298 297 296 294 292 291 289 286 284 283 281 279 276 274 273 272 269 266 264 262 262 262 260 257 256 255 252 251
Height
5878 5878 5877 5877 5876 5876 5876 5876 5876 5876 5876 5876 5876 5875 5875 5876 5876 5876 5876 5876 5876 5876 5876 5877 5877 5877 5877 5877 5877 5878 5878 5878 5878 5878 5878 5878 5877 5877 5877 5877 5877 5877 5877
5877 5876 5876 5875 5875 5874 5874 5874 5874 5874 5874 5874 5874 5874 5873 5874 5874 5874 5874 5874 5874 5874 5874 5874 5874 5874 5874 5875 5875 5875 5875 5875 5875 5876 5876 5876 5875 5875 5875 5875 5875 5875 5875
5875 5874 5874 5873 5873 5873 5872 5872 5872 5872 5872 5872 5872 5872 5871 5872 5872 5872 5872 5871 5871 5871 5871 5871 5872 5871 5872 5872 5872 5872 5872 5873 5873 5873 5873 5873 5873 5873 5873 5873 5873 5873 5873
5874 5873 5872 5871 5871 5870 5870 5870 5870 5869 5870 5870 5870 5869 5869 5869 5869 5869 5869 5869 5869 5868 5868 5869 5869 5869 5869 5869 5869 5869 5870 5870 5870 5870 5870 5870 5870 5870 5870 5870 5870 5870 5870
5872 5871 5870 5869 5868 5868 5868 5867 5867 5867 5867 5867 5867 5867 5867 5866 5866 5867 5867 5866 5866 5866 5865 5865 5865 5865 5865 5866 5866 5866 5867 5867 5867 5867 5867 5867 5867 5867 5867 5867 5867 5867 5867
5871 5869 5868 5867 5866 5865 5865 5865 5864 5864 5864 5864 5864 5864 5864 5864 5864 5863 5863 5863 5863 5862 5862 5862 5862 5862 5862 5862 5862 5862 5863 5863 5863 5863 5863 5863 5863 5864 5864 5864 5864 5863 5863
5869 5867 5866 5865 5864 5863 5862 5862 5861 5861 5861 5861 5861 5861 5861 5861 5861 5860 5860 5860 5859 5859 5858 5858 5858 5858 5858 5858 5858 5859 5859 5859 5859 5859 5859 5860 5860 5860 5860 5860 5860 5860 5860
5866 5865 5863 5862 5861 5860 5859 5859 5858 5858 5858 5858 5858 5857 5857 5858 5858 5857 5856 5856 5856 5855 5854 5854 5854 5854 5854 5854 5854 5854 5854 5854 5855 5855 5855 5855 5855 5855 5856 5856 5855 5855 5856
5864 5863 5861 5860 5858 5857 5856 5855 5855 5855 5854 5854 5854 5854 5854 5854 5854 5854 5853 5853 5852 5851 5851 5851 5850 5850 5849 5849 5850 5850 5849 5849 5849 5850 5850 5850 5850 5850 5851 5851 5851 5852 5852
5862 5860 5859 5857 5855 5854 5853 5852 5852 5851 5851 5850 5850 5850 5849 5850 5850 5850 5849 5849 5848 5847 5847 5847 5846 5846 5845 5845 5845 5845 5844 5844 5844 5844 5844 5844 5845 5845 5845 5846 5846 5847 5847
5860 5858 5856 5854 5853 5851 5850 5849 5848 5847 5847 5846 5846 5845 5845 5845 5845 5845 5845 5844 5844 5843 5842 5842 5841 5840 5840 5839 5839 5839 5838 5838 5838 5838 5838 5838 5839 5839 5840 5840 5841 5841 5842
5858 5856 5854 5852 5850 5848 5847 5845 5844 5843 5842 5842 5841 5841 5841 5840 5840 5840 5840 5839 5839 5838 5837 5836 5835 5835 5834 5833 5833 5833 5832 5832 5832 5832 5832 5832 5832 5833 5833 5834 5835 5836 5837
5856 5854 5851 5849 5847 5845 5843 5842 5840 5839 5838 5837 5837 5836 5836 5835 5835 5834 5834 5834 5833 5832 5831 5830 5829 5828 5827 5827 5826 5826 5826 5826 5825 5825 5825 5825 5826 5826 5827 5827 5828 5829 5830
5853 5851 5848 5846 5844 5842 5840 5838 5837 5835 5834 5833 5832 5832 5831 5830 5830 5829 5828 5828 5827 5827 5825 5824 5822 5821 5821 5820 5819 5819 5819 5818 5818 5817 5817 5818 5818 5819 5819 5820 5821 5822 5824
5850 5847 5845 5843 5841 5838 5836 5834 5832 5831 5830 5828 5827 5827 5826 5825 5824 5823 5822 5822 5821 5820 5819 5817 5816 5815 5814 5813 5812 5811 5811 5811 5811 5810 5810 5810 5811 5811 5812 5813 5814 5815 5817
5847 5844 5842 5839 5837 5835 5832 5830 5829 5827 5825 5824 5823 5822 5821 5819 5818 5817 5816 5815 5814 5813 5812 5811 5809 5808 5807 5806 5805 5804 5804 5803 5803 5803 5803 5803 5803 5804 5804 5805 5806 5807 5809
5843 5841 5838 5836 5834 5831 5829 5826 5825 5823 5821 5819 5818 5816 5815 5813 5812 5811 5809 5808 5807 5806 5805 5803 5802 5801 5799 5798 5797 5796 5796 5796 5796 5796 5796 5796 5796 5796 5796 5797 5798 5799 5802
5839 5837 5834 5832 5829 5827 5824 5822 5820 5818 5816 5814 5812 5811 5809 5807 5806 5804 5803 5801 5799 5798 5797 5796 5794 5793 5791 5790 5790 5789 5789 5788 5788 5788 5788 5788 5787 5787 5788 5789 5790 5792 5793
5834 5832 5830 5827 5825 5822 5820 5817 5815 5813 5811 5809 5807 5805 5803 5801 5800 5798 5796 5794 5792 5791 5789 5788 5787 5785 5784 5782 5782 5781 5781 5780 5780 5780 5780 5780 5779 5779 5780 5781 5782 5784 5786
5830 5827 5825 5822 5820 5817 5815 5812 5810 5807 5805 5803 5801 5799 5797 5795 5793 5791 5789 5787 5785 5784 5782 5780 5779 5777 5776 5774 5774 5772 5772 5772 5772 5772 5771 5771 5772 5772 5772 5773 5775 5776 5778
5825 5822 5820 5817 5814 5812 5810 5807 5804 5802 5800 5797 5795 5792 5790 5788 5786 5784 5782 5780 5778 5776 5774 5773 5771 5769 5768 5766 5765 5764 5763 5763 5763 5763 5763 5763 5763 5764 5765 5765 5767 5768 5770
5820 5817 5814 5812 5809 5807 5804 5801 5798 5796 5794 5791 5789 5786 5783 5781 5778 5776 5774 5772 5770 5768 5766 5764 5763 5761 5759 5758 5756 5756 5755 5755 5754 5754 5754 5754 5754 5755 5756 5757 5758 5760 5761
5814 5811 5809 5806 5803 5801 5798 5795 5792 5790 5787 5785 5782 5779 5777 5774 5771 5768 5766 5764 5761 5759 5758 5756 5754 5752 5751 5749 5748 5747 5747 5746 5746 5745 5745 5746 5746 5747 5747 5748 5749 5751 5752
5808 5805 5803 5800 5797 5794 5792 5789 5786 5783 5780 5778 5775 5772 5769 5766 5763 5761 5758 5755 5753 5751 5749 5747 5746 5744 5742 5740 5739 5739 5738 5738 5737 5737 5736 5737 5737 5738 5739 5740 5741 5742 5743
5802 5799 5796 5793 5791 5788 5785 5782 5779 5776 5773 5770 5767 5764 5761 5759 5756 5753 5750 5747 5745 5742 5740 5738 5737 5735 5733 5732 5731 5730 5729 5729 5729 5729 5728 5729 5729 5730 5731 5732 5733 5734 5735
5796 5793 5790 5787 5784 5781 5778 5775 5772 5769 5766 5763 5760 5757 5754 5751 5747 5744 5742 5739 5736 5734 5732 5730 5728 5726 5725 5724 5723 5722 5721 5720 5720 5720 5720 5720 5720 5721 5722 5723 5724 5725 5726